TES-22

operational
NORAD ID: 62657 Int'l Des: NNA 2025-009 Owner: ARC Country: US
LEOCIRCULARRETROGRADESSO

About TES-22

Description loading...

Live Position

Loading 3D Globe...

Upcoming Passes

Altitude History

Altitude vs Time

uPlot chart will show altitude changes over time

Two-Line Element Set

1 62657U 25009BA 25315.19602604 .00014002 00000-0 57520-3 0 9995
2 62657 97.4149 33.7278 0001554 17.4047 342.7244 15.24304031 45660
Epoch: Nov 11, 2025 • Age: 16 hours

Current Status

Altitude 494.2 km
Velocity 7.62 km/s
Sub-Earth Point 6.65°N, 34.95°E
Launch Date Jan 14, 2025
Age 0.8 years
Type other

Technical Details

Classification Payload
Mass 1.00 kg
Dry Mass 1.00 kg
Total Mass 1.00 kg
Length 0.10 m
Diameter 0.10 m
Span 0.10 m
Shape Box
Manufacturer ARC
Bus Type Cubesat 1U
Phase Status In Orbit
Owner/State ARC/US

Large Constellations

Loading constellations...